{"data":{"norad_id":69083,"epoch":"2026-09-20T04:28:45.468768Z","epoch_age_seconds":50348,"freshness":"FRESH","line1":"1 69083U 26104L   26263.18663737  .00000072  00000+0  93051-4 0  9999","line2":"2 69083  88.9913 331.6742 0002259 100.1542 259.9864 13.51022044 18041","mean_motion":13.51022044,"eccentricity":0.0002259,"inclination_deg":88.9913,"raan_deg":331.6742,"arg_perigee_deg":100.1542,"mean_anomaly_deg":259.9864,"bstar":9.3051e-5,"rev_number":1804,"period_min":106.58597366306,"perigee_km":1066.8183864932,"apogee_km":1070.1827773527,"semimajor_km":7446.637581923,"source":"CELESTRAK","updated_at":"2026-09-20T09:00:24.672217Z"}}